Terug naar catalogus

COSMOS 970 DEB

ActiefLEO
NORAD 10879·DEBRIS·🇷🇺 Russia

Gelanceerd Dec 21, 1977 vanaf Baikonur Cosmodrome

Loading…

Volgende Passages (komende 24 uur)

TLE

VersSource: Space-Track

Epoch: Sep 14, 2026, 08:20 UTC

1 10879U 77121AA  26257.34766223  .00000229  00000-0  29954-3 0  9993
2 10879  65.8246 247.3780 0109423  95.9075 265.4473 13.77128544642873

Volg COSMOS 970 DEB in realtime met AllMySat

Download on the App Store